Wind_Speed
39 38 38 37 37 37 37 38 39 39 39 40 41 42 43 45 46 47 48 50 51 53 55 57 59 59 59 59 60 60 59 59 58 57 56 54 52 51
38 38 37 37 37 38 38 39 39 40 40 41 41 41 43 45 47 48 49 51 52 54 56 57 58 58 58 59 60 59 59 58 58 57 55 53 52 51
38 37 37 37 37 38 38 38 39 40 40 41 41 42 44 45 46 47 49 50 52 54 56 57 57 57 58 59 59 58 57 57 57 56 55 53 51 50
37 37 37 37 37 37 37 38 39 39 40 40 41 42 44 45 46 47 49 50 52 54 55 56 57 57 58 58 58 57 56 56 56 55 53 52 50 48
38 37 37 36 36 36 37 38 38 39 40 40 41 43 43 44 46 48 49 50 52 53 54 55 56 57 57 57 56 56 55 55 54 53 52 51 48 47
38 37 36 36 36 37 37 37 38 38 39 40 41 42 43 44 46 48 49 50 51 52 54 54 56 57 57 56 55 55 54 54 53 52 52 50 47 45
37 37 36 36 36 36 36 37 38 38 39 40 41 42 43 44 46 48 49 50 50 51 53 54 55 55 54 53 53 54 54 54 53 52 50 48 46 43
38 37 36 35 35 35 36 37 38 38 39 40 41 42 43 45 46 47 48 49 50 51 52 53 54 53 52 52 53 53 54 53 52 50 49 47 44 42
37 37 35 34 35 35 36 37 37 38 39 40 41 41 43 44 46 47 47 48 49 50 51 51 52 52 52 52 53 54 53 52 50 49 47 45 42 41
37 37 35 34 35 36 36 37 38 39 39 40 40 41 42 44 45 45 46 47 48 49 49 50 50 50 51 52 53 53 52 50 48 47 45 43 41 39
37 36 34 34 35 36 36 37 37 38 39 40 40 40 42 43 44 45 45 46 47 48 49 49 49 49 50 51 52 52 49 47 46 44 42 41 39 38
36 35 35 35 35 35 35 35 35 37 38 39 39 40 41 42 43 43 44 45 46 47 47 48 48 48 48 50 50 49 47 45 43 42 41 40 39 37
35 34 34 34 34 33 33 33 34 36 37 37 38 39 40 40 41 42 43 44 46 46 47 47 48 48 48 48 47 46 44 43 42 40 40 40 39 37
35 34 34 33 34 34 33 33 35 36 37 37 38 38 38 39 40 41 42 44 45 45 45 46 47 47 47 46 45 43 43 42 40 39 39 40 38 37
36 34 34 34 34 34 33 34 35 35 35 36 36 36 37 38 39 40 41 42 43 44 44 44 45 45 45 44 43 42 42 41 40 39 39 39 37 36
36 35 34 33 34 33 33 34 35 35 35 34 34 35 36 37 38 39 40 40 42 42 42 42 43 43 43 42 42 43 42 40 39 38 38 37 36 35
35 35 35 35 34 33 33 34 34 34 33 32 33 34 34 36 37 38 39 39 39 40 40 41 42 42 42 42 43 42 41 39 38 37 37 37 36 34
35 36 35 34 33 33 33 33 32 31 30 30 31 32 33 34 36 36 37 37 37 37 38 40 41 41 42 42 42 41 39 37 36 36 36 36 34 33
34 34 33 32 32 32 31 30 30 29 28 29 30 31 32 33 34 35 35 35 35 36 37 38 39 40 41 41 41 39 37 36 35 35 35 35 33 32
33 32 31 30 30 29 28 28 28 28 27 28 28 29 31 32 33 33 33 34 35 35 36 38 39 40 41 40 39 37 36 35 34 34 35 34 33 31
31 30 29 28 27 26 25 26 26 25 26 26 27 28 30 31 31 31 32 33 34 35 35 36 38 39 39 38 37 37 35 34 33 33 34 33 31 30
29 28 27 25 24 23 24 23 23 24 24 25 26 27 29 29 28 30 31 32 33 33 34 35 36 38 38 37 36 35 34 34 34 34 33 31 30 29
28 27 26 24 22 22 22 21 21 22 22 23 25 26 27 27 27 29 30 30 31 31 32 33 35 36 37 36 35 34 33 33 33 33 31 30 29 29
Wind_Direction
262 265 268 272 276 279 283 287 290 294 297 299 302 304 306 309 311 313 314 315 316 318 319 320 321 322 322 323 323 323 323 324 323 323 322 321 320 319
262 266 269 272 275 279 283 287 290 294 297 300 302 304 307 309 311 313 315 316 317 318 319 321 322 322 323 324 324 324 324 324 324 323 323 321 320 320
261 265 268 272 276 280 284 287 291 294 297 300 302 305 307 310 312 313 315 316 317 318 319 321 322 323 324 324 324 324 324 325 325 325 324 322 322 322
261 265 268 272 277 280 284 287 291 294 297 299 302 304 307 309 312 313 315 316 317 319 320 322 323 324 324 325 325 325 325 325 326 326 326 325 324 323
260 264 267 272 277 280 284 287 291 293 296 299 302 305 307 310 312 314 315 317 318 319 321 323 324 324 325 325 326 326 326 327 327 327 328 327 325 325
261 264 268 272 276 280 284 288 291 293 296 299 302 305 308 311 313 315 316 317 319 320 322 324 325 325 325 326 326 327 327 328 328 328 328 328 327 327
262 265 269 272 276 280 285 288 291 294 296 299 303 306 309 311 314 315 316 318 319 321 323 324 325 325 326 327 328 328 328 328 328 328 329 328 328 328
262 265 268 272 277 281 285 288 290 293 296 299 303 306 309 312 314 316 317 318 319 321 323 324 326 327 327 328 329 329 329 329 329 330 330 329 329 329
261 265 269 273 277 281 285 288 290 294 297 300 303 306 309 312 314 316 317 318 320 322 324 325 327 327 328 329 329 330 329 329 330 331 331 331 330 330
260 265 268 272 275 280 284 288 290 294 297 301 303 306 309 312 314 316 317 319 321 323 324 326 327 327 328 329 330 330 330 330 331 332 333 333 332 332
261 264 267 272 276 279 283 286 290 294 297 300 303 306 309 312 314 316 318 319 321 323 324 326 327 328 328 330 330 331 331 332 333 335 335 335 335 335
260 263 267 272 276 280 284 287 291 295 297 300 303 306 309 312 314 316 318 320 322 323 325 326 328 328 329 330 331 332 333 334 335 336 337 337 337 336
258 263 268 272 275 279 284 287 292 295 298 300 303 306 309 311 313 316 318 320 322 324 325 327 328 329 330 331 333 334 334 335 336 337 338 338 338 337
257 261 265 270 274 278 282 286 290 294 297 299 303 306 309 311 314 316 318 321 323 325 326 328 330 331 332 333 335 335 335 335 335 336 337 338 338 338
257 260 264 268 272 276 280 284 289 293 296 299 302 306 308 311 315 317 319 321 323 325 327 329 331 333 334 335 336 336 336 335 335 336 337 338 339 339
258 261 264 266 270 274 278 283 287 291 296 299 301 305 309 312 316 318 320 322 324 326 328 331 333 335 336 336 337 337 337 337 337 337 338 339 340 341
258 260 264 266 270 274 277 282 285 290 295 298 302 306 309 313 316 319 321 323 325 326 329 333 335 336 337 337 337 338 338 338 338 339 339 340 341 341
256 260 262 266 269 273 276 279 283 288 293 298 302 306 309 313 317 320 322 324 325 326 329 333 335 337 337 339 339 339 339 339 340 340 341 341 341 342
254 257 262 266 269 273 276 278 282 286 291 298 303 307 310 314 317 320 322 324 324 326 329 333 336 337 338 339 340 340 341 342 343 344 344 344 343 343
253 256 260 263 267 270 274 278 281 284 291 299 303 307 311 314 317 320 322 323 325 327 330 333 336 338 340 341 342 342 344 345 346 347 347 347 348 348
250 254 257 259 265 269 272 276 279 284 292 299 303 307 312 315 318 320 322 323 325 328 331 334 337 340 342 342 343 344 345 347 348 348 348 348 350 352
248 252 254 257 260 266 271 274 280 286 291 298 303 308 313 316 317 320 323 324 326 329 333 336 339 341 343 344 344 345 346 347 348 349 351 352 353 353
248 251 253 253 258 266 269 273 280 286 292 299 305 310 314 315 317 321 323 325 328 331 334 337 340 342 344 345 345 346 347 348 349 351 353 354 355 356
Height
5742 5743 5744 5744 5744 5744 5743 5741 5740 5737 5735 5731 5727 5722 5717 5712 5707 5701 5694 5687 5679 5671 5663 5654 5645 5635 5624 5614 5604 5593 5583 5573 5563 5553 5544 5535 5527 5519
5734 5735 5736 5737 5736 5736 5735 5733 5731 5729 5726 5722 5719 5715 5710 5704 5698 5692 5686 5678 5671 5662 5654 5645 5635 5625 5614 5604 5593 5583 5572 5562 5552 5542 5533 5524 5516 5507
5726 5727 5728 5728 5728 5728 5726 5725 5723 5720 5717 5714 5710 5706 5702 5696 5690 5684 5677 5670 5662 5653 5644 5635 5625 5615 5605 5594 5583 5573 5562 5552 5542 5532 5522 5514 5505 5497
5717 5719 5720 5720 5720 5719 5718 5716 5714 5712 5709 5706 5702 5698 5693 5688 5682 5675 5668 5661 5653 5644 5635 5625 5615 5606 5595 5585 5574 5563 5553 5542 5533 5522 5513 5505 5496 5487
5709 5710 5711 5712 5712 5711 5710 5708 5706 5704 5701 5698 5694 5690 5685 5680 5674 5667 5659 5651 5643 5635 5626 5616 5606 5596 5586 5575 5564 5554 5544 5534 5525 5514 5504 5495 5487 5479
5700 5702 5703 5703 5703 5703 5701 5700 5698 5695 5692 5689 5686 5681 5677 5671 5665 5659 5651 5643 5635 5626 5616 5607 5597 5587 5577 5567 5557 5546 5536 5525 5515 5506 5496 5488 5479 5471
5691 5693 5694 5695 5695 5694 5693 5691 5690 5687 5684 5681 5677 5673 5668 5663 5657 5650 5643 5635 5626 5617 5608 5599 5590 5580 5569 5558 5548 5538 5528 5518 5508 5498 5489 5480 5472 5464
5682 5684 5685 5686 5686 5685 5685 5683 5681 5679 5676 5673 5669 5665 5660 5654 5648 5641 5634 5627 5620 5611 5601 5591 5581 5571 5561 5551 5541 5531 5520 5510 5500 5491 5482 5473 5465 5457
5673 5675 5676 5677 5677 5677 5676 5674 5672 5670 5668 5665 5661 5656 5651 5646 5640 5633 5625 5617 5610 5601 5592 5583 5573 5562 5553 5543 5533 5523 5513 5503 5493 5484 5475 5466 5458 5450
5664 5666 5668 5669 5669 5669 5668 5666 5664 5662 5660 5657 5653 5648 5643 5637 5631 5624 5617 5609 5601 5592 5584 5575 5565 5555 5545 5536 5526 5516 5506 5496 5487 5477 5469 5460 5452 5445
5655 5657 5659 5660 5660 5660 5659 5658 5656 5654 5651 5647 5644 5639 5634 5628 5622 5615 5609 5602 5594 5585 5577 5568 5559 5549 5539 5529 5519 5509 5499 5490 5481 5472 5463 5455 5447 5440
5646 5649 5650 5651 5651 5651 5650 5649 5648 5645 5642 5639 5635 5631 5625 5620 5614 5607 5601 5594 5586 5578 5569 5561 5552 5543 5534 5523 5513 5503 5493 5484 5475 5467 5459 5451 5443 5436
5637 5640 5641 5642 5643 5642 5642 5641 5639 5637 5634 5630 5626 5622 5617 5611 5605 5599 5593 5586 5578 5570 5562 5553 5545 5535 5526 5517 5507 5497 5488 5479 5471 5463 5455 5447 5439 5432
5628 5631 5632 5633 5634 5634 5633 5632 5631 5628 5625 5622 5618 5614 5609 5603 5598 5591 5585 5578 5570 5563 5554 5546 5537 5529 5520 5510 5502 5493 5483 5475 5467 5459 5451 5443 5435 5428
5619 5621 5623 5624 5624 5625 5625 5624 5622 5620 5617 5614 5610 5606 5601 5596 5590 5584 5577 5570 5563 5555 5547 5539 5530 5522 5513 5505 5496 5488 5479 5470 5462 5454 5447 5439 5431 5424
5609 5612 5613 5614 5615 5616 5616 5615 5614 5612 5609 5606 5602 5598 5594 5589 5583 5577 5570 5563 5556 5548 5541 5533 5525 5516 5508 5499 5491 5482 5474 5466 5458 5450 5442 5435 5427 5420
5600 5602 5604 5605 5606 5607 5607 5607 5605 5603 5601 5598 5595 5591 5586 5581 5576 5570 5564 5557 5550 5542 5535 5527 5519 5511 5503 5495 5486 5477 5469 5461 5453 5446 5438 5431 5424 5417
5590 5593 5595 5597 5598 5599 5599 5598 5597 5595 5593 5591 5587 5583 5579 5575 5569 5563 5557 5551 5544 5537 5530 5523 5515 5506 5498 5490 5482 5474 5465 5457 5450 5442 5435 5427 5420 5413
5581 5584 5586 5588 5590 5590 5590 5590 5589 5588 5585 5583 5580 5576 5572 5568 5562 5557 5551 5545 5539 5532 5526 5518 5511 5503 5495 5486 5478 5470 5462 5454 5446 5439 5431 5424 5417 5410
5573 5576 5578 5580 5581 5581 5582 5581 5581 5580 5578 5576 5573 5569 5565 5561 5556 5550 5545 5539 5533 5527 5520 5513 5506 5498 5490 5482 5474 5466 5458 5451 5443 5436 5429 5422 5415 5408
5564 5567 5570 5572 5573 5573 5574 5574 5573 5572 5571 5568 5565 5562 5558 5554 5549 5544 5539 5534 5528 5522 5515 5508 5501 5494 5486 5478 5470 5463 5455 5448 5441 5434 5427 5420 5413 5407
5556 5559 5561 5563 5565 5566 5566 5566 5566 5565 5563 5561 5558 5555 5551 5547 5543 5538 5533 5528 5522 5517 5510 5504 5497 5490 5482 5475 5467 5460 5453 5446 5439 5432 5425 5418 5412 5405
5548 5551 5553 5555 5557 5558 5559 5559 5559 5558 5556 5554 5551 5548 5545 5541 5537 5532 5527 5523 5517 5512 5506 5500 5493 5486 5479 5472 5465 5457 5450 5444 5437 5430 5424 5417 5411 5405